St. Cloud, MN

7:55 AM CDT on June 25, 2018 (GMT -0500)
Saint Cloud Regional

Weather History for KSTC - October, 2017

Change the Weather History Date:

Sunday, October 1, 2017

  Actual Average Record
Temperature  
Mean Temperature 56 °F 52 °F  
Max Temperature 60 °F 64 °F 86 °F (1963)
Min Temperature 52 °F 40 °F 18 °F (1974)
Degree Days  
Heating Degree Days 9 13  
Month to date heating degree days 9 13  
Since 1 July heating degree days 188 299  
Cooling Degree Days 0 0  
Month to date cooling degree days 0 0  
Year to date cooling degree days 361 463  
Growing Degree Days 6 (Base 50)    
Moisture  
Dew Point 52 °F    
Average Humidity 86    
Maximum Humidity 100    
Minimum Humidity 72    
Precipitation  
Precipitation 0.46 in 0.10 in 3.21 in (1950)
Month to date precipitation 0.46 0.10  
Year to date precipitation 24.32 23.14  
Snow  
Snow 0.00 in 0.00 in T in (1974)
Month to date snowfall 0.0 0.0  
Since 1 July snowfall 0.0 T  
Since 1 September snowfall 0.0 T  
Snow Depth 0.00 in    
Sea Level Pressure  
Sea Level Pressure 29.93 in    
Wind  
Wind Speed 14 mph (SSE)    
Max Wind Speed 24 mph    
Max Gust Speed 33 mph    
Visibility 9 miles    
Events Rain    
T = Trace of Precipitation, MM = Missing Value Source: NWS Daily Summary

Daily Weather History Graph

Daily Weather History Graph

Search for Another Location

Airport or City:

Astronomy

Oct. 01, 2017 Rise Set
Actual Time 7:14 AM CDT 6:55 PM CDT
Civil Twilight 6:45 AM CDT 7:25 PM CDT
Nautical Twilight 6:10 AM CDT 7:59 PM CDT
Astronomical Twilight 5:35 AM CDT 8:34 PM CDT
Moon 5:08 PM CDT (10/1) 2:31 AM CDT (10/1)
Length of Visible Light 12h 40m
Length of Day
11h 41m
Waxing Gibbous, 82% of the Moon is Illuminated
Oct 1
Waxing Gibbous
Oct 5
Full
Oct 12
Last Quarter
Oct 19
New
Oct 27
First Quarter

Hourly Weather History & Observations

Time (CDT) Temp. Dew Point Humidity Pressure Visibility Wind Dir Wind Speed Gust Speed Precip Events Conditions
12:53 AM 55.9 °F 51.1 °F 84% 30.11 in 10.0 mi SE 9.2 mph - 0.01 in Rain Light Rain
1:53 AM 57.0 °F 48.9 °F 74% 30.09 in 10.0 mi SE 12.7 mph - 0.00 in   Overcast
2:53 AM 57.9 °F 48.0 °F 70% 30.06 in 10.0 mi SSE 15.0 mph 25.3 mph N/A   Overcast
3:53 AM 57.0 °F 48.9 °F 74% 30.06 in 10.0 mi SSE 18.4 mph 28.8 mph 0.00 in Rain Light Rain
4:53 AM 53.1 °F 51.1 °F 93% 30.04 in 7.0 mi SSE 17.3 mph - 0.03 in Rain Rain
5:53 AM 52.0 °F 52.0 °F 100% 30.05 in 6.0 mi SSE 11.5 mph - 0.05 in Rain Light Rain
6:53 AM 52.0 °F 52.0 °F 100% 30.02 in 9.0 mi North - - 0.06 in Rain Light Rain
7:53 AM 52.0 °F 51.1 °F 97% 30.02 in 10.0 mi SE 9.2 mph - 0.03 in   Overcast
8:53 AM 53.1 °F 51.1 °F 93% 30.01 in 10.0 mi SE 10.4 mph - 0.03 in Rain Light Rain
9:53 AM 53.1 °F 51.1 °F 93% 29.98 in 8.0 mi SSE 15.0 mph - 0.04 in Rain Light Rain
10:53 AM 52.0 °F 51.1 °F 97% 29.96 in 7.0 mi SE 15.0 mph 21.9 mph 0.11 in Rain Light Rain
11:53 AM 53.1 °F 51.1 °F 93% 29.94 in 6.0 mi SE 12.7 mph - 0.08 in Rain Light Rain
12:24 PM 53.1 °F 52.0 °F 96% 29.90 in 8.0 mi South 15.0 mph - 0.03 in Rain Light Rain
12:53 PM 54.0 °F 52.0 °F 93% 29.92 in 10.0 mi SSE 16.1 mph - 0.03 in   Overcast
1:53 PM 57.0 °F 54.0 °F 89% 29.89 in 10.0 mi SSE 20.7 mph 29.9 mph N/A   Overcast
2:15 PM 57.0 °F 54.0 °F 89% 29.85 in 10.0 mi SSE 18.4 mph 26.5 mph N/A   Overcast
2:53 PM 57.0 °F 55.0 °F 93% 29.86 in 10.0 mi SSE 18.4 mph 26.5 mph N/A   Overcast
3:01 PM 57.9 °F 55.0 °F 90% 29.83 in 10.0 mi SE 19.6 mph 26.5 mph N/A   Overcast
3:53 PM 57.9 °F 55.0 °F 90% 29.86 in 10.0 mi SSE 19.6 mph 27.6 mph N/A   Overcast
4:53 PM 59.0 °F 54.0 °F 83% 29.85 in 10.0 mi SSE 17.3 mph 21.9 mph 0.00 in   Overcast
5:53 PM 60.1 °F 55.0 °F 83% 29.85 in 10.0 mi SSE 18.4 mph 24.2 mph N/A   Overcast
6:53 PM 60.1 °F 54.0 °F 80% 29.85 in 10.0 mi SSE 15.0 mph 24.2 mph N/A   Overcast
7:00 PM 60.1 °F 54.0 °F 80% 29.82 in 10.0 mi SSE 15.0 mph 23.0 mph N/A   Overcast
7:53 PM 60.1 °F 54.0 °F 80% 29.86 in 10.0 mi SSE 12.7 mph - N/A   Overcast
8:53 PM 59.0 °F 53.1 °F 81% 29.86 in 10.0 mi SE 12.7 mph - N/A   Mostly Cloudy
9:53 PM 59.0 °F 53.1 °F 81% 29.88 in 10.0 mi SE 10.4 mph - N/A   Overcast
10:53 PM 57.9 °F 52.0 °F 81% 29.88 in 10.0 mi SE 8.1 mph - N/A   Scattered Clouds
11:53 PM 57.0 °F 51.1 °F 81% 29.87 in 10.0 mi SE 9.2 mph - N/A   Clear